Year,Month,Day,Hour,Minute,Value (Times are PST for temperature in C)
2017,08,19,00,00,15.40
2017,08,19,00,01,15.40
2017,08,19,00,02,15.40
2017,08,19,00,03,15.50
2017,08,19,00,04,15.50
2017,08,19,00,05,15.50
2017,08,19,00,06,15.60
2017,08,19,00,07,15.60
2017,08,19,00,08,15.60
2017,08,19,00,09,15.60
2017,08,19,00,10,15.60
2017,08,19,00,11,15.60
2017,08,19,00,12,15.60
2017,08,19,00,13,15.60
2017,08,19,00,14,15.60
2017,08,19,00,15,15.60
2017,08,19,00,16,15.60
2017,08,19,00,17,15.60
2017,08,19,00,18,15.60
2017,08,19,00,19,15.60
2017,08,19,00,20,15.50
2017,08,19,00,21,15.50
2017,08,19,00,22,15.50
2017,08,19,00,23,15.50
2017,08,19,00,24,15.40
2017,08,19,00,25,15.40
2017,08,19,00,26,15.40
2017,08,19,00,27,15.40
2017,08,19,00,28,15.40
2017,08,19,00,29,15.40
2017,08,19,00,30,15.40
2017,08,19,00,31,15.40
2017,08,19,00,32,15.40
2017,08,19,00,33,15.30
2017,08,19,00,34,15.30
2017,08,19,00,35,15.30
2017,08,19,00,36,15.30
2017,08,19,00,37,15.20
2017,08,19,00,38,15.20
2017,08,19,00,39,15.20
2017,08,19,00,40,15.20
2017,08,19,00,41,15.10
2017,08,19,00,42,15.10
2017,08,19,00,43,15.10
2017,08,19,00,44,15.00
2017,08,19,00,45,15.00
2017,08,19,00,46,14.90
2017,08,19,00,47,14.90
2017,08,19,00,48,14.80
2017,08,19,00,49,14.80
2017,08,19,00,50,14.80
2017,08,19,00,51,14.70
2017,08,19,00,52,14.70
2017,08,19,00,53,14.70
2017,08,19,00,54,14.60
2017,08,19,00,55,14.60
2017,08,19,00,56,14.50
2017,08,19,00,57,14.50
2017,08,19,00,58,14.50
2017,08,19,00,59,14.50
2017,08,19,01,00,14.40
2017,08,19,01,01,14.40
2017,08,19,01,02,14.40
2017,08,19,01,03,14.30
2017,08,19,01,04,14.30
2017,08,19,01,05,14.30
2017,08,19,01,06,14.30
2017,08,19,01,07,14.20
2017,08,19,01,08,14.20
2017,08,19,01,09,14.20
2017,08,19,01,10,14.20
2017,08,19,01,11,14.10
2017,08,19,01,12,14.10
2017,08,19,01,13,14.10
2017,08,19,01,14,14.00
2017,08,19,01,15,14.00
2017,08,19,01,16,13.90
2017,08,19,01,17,13.90
2017,08,19,01,18,13.90
2017,08,19,01,19,13.80
2017,08,19,01,20,13.80
2017,08,19,01,21,13.80
2017,08,19,01,22,13.80
2017,08,19,01,23,13.70
2017,08,19,01,24,13.70
2017,08,19,01,25,13.70
2017,08,19,01,26,13.60
2017,08,19,01,27,13.60
2017,08,19,01,28,13.50
2017,08,19,01,29,13.50
2017,08,19,01,30,13.40
2017,08,19,01,31,13.40
2017,08,19,01,32,13.40
2017,08,19,01,33,13.30
2017,08,19,01,34,13.30
2017,08,19,01,35,13.30
2017,08,19,01,36,13.20
2017,08,19,01,37,13.20
2017,08,19,01,38,13.20
2017,08,19,01,39,13.10
2017,08,19,01,40,13.10
2017,08,19,01,41,13.10
2017,08,19,01,42,13.00
2017,08,19,01,43,13.00
2017,08,19,01,44,12.90
2017,08,19,01,45,12.90
2017,08,19,01,46,12.80
2017,08,19,01,47,12.80
2017,08,19,01,48,12.80
2017,08,19,01,49,12.70
2017,08,19,01,50,12.70
2017,08,19,01,51,12.70
2017,08,19,01,52,12.60
2017,08,19,01,53,12.60
2017,08,19,01,54,12.60
2017,08,19,01,55,12.60
2017,08,19,01,56,12.50
2017,08,19,01,57,12.50
2017,08,19,01,58,12.40
2017,08,19,01,59,12.40
2017,08,19,02,00,12.40
2017,08,19,02,01,12.40
2017,08,19,02,02,12.30
2017,08,19,02,03,12.30
2017,08,19,02,04,12.30
2017,08,19,02,05,12.30
2017,08,19,02,06,12.20
2017,08,19,02,07,12.20
2017,08,19,02,08,12.20
2017,08,19,02,09,12.20
2017,08,19,02,10,12.10
2017,08,19,02,11,12.10
2017,08,19,02,12,12.10
2017,08,19,02,13,12.10
2017,08,19,02,14,12.00
2017,08,19,02,15,12.00
2017,08,19,02,16,11.90
2017,08,19,02,17,11.90
2017,08,19,02,18,11.90
2017,08,19,02,19,11.90
2017,08,19,02,20,11.90
2017,08,19,02,21,11.80
2017,08,19,02,22,11.80
2017,08,19,02,23,11.80
2017,08,19,02,24,11.80
2017,08,19,02,25,11.80
2017,08,19,02,26,11.80
2017,08,19,02,27,11.80
2017,08,19,02,28,11.70
2017,08,19,02,29,11.70
2017,08,19,02,30,11.70
2017,08,19,02,31,11.70
2017,08,19,02,32,11.70
2017,08,19,02,33,11.60
2017,08,19,02,34,11.60
2017,08,19,02,35,11.60
2017,08,19,02,36,11.60
2017,08,19,02,37,11.60
2017,08,19,02,38,11.60
2017,08,19,02,39,11.60
2017,08,19,02,40,11.60
2017,08,19,02,41,11.50
2017,08,19,02,42,11.50
2017,08,19,02,43,11.50
2017,08,19,02,44,11.40
2017,08,19,02,45,11.40
2017,08,19,02,46,11.40
2017,08,19,02,47,11.40
2017,08,19,02,48,11.40
2017,08,19,02,49,11.40
2017,08,19,02,50,11.40
2017,08,19,02,51,11.30
2017,08,19,02,52,11.30
2017,08,19,02,53,11.30
2017,08,19,02,54,11.30
2017,08,19,02,55,11.40
2017,08,19,02,56,11.40
2017,08,19,02,57,11.40
2017,08,19,02,58,11.40
2017,08,19,02,59,11.50
2017,08,19,03,00,11.50
2017,08,19,03,01,11.50
2017,08,19,03,02,11.50
2017,08,19,03,03,11.50
2017,08,19,03,04,11.50
2017,08,19,03,05,11.50
2017,08,19,03,06,11.50
2017,08,19,03,07,11.50
2017,08,19,03,08,11.60
2017,08,19,03,09,11.60
2017,08,19,03,10,11.60
2017,08,19,03,11,11.60
2017,08,19,03,12,11.60
2017,08,19,03,13,11.60
2017,08,19,03,14,11.60
2017,08,19,03,15,11.60
2017,08,19,03,16,11.60
2017,08,19,03,17,11.50
2017,08,19,03,18,11.50
2017,08,19,03,19,11.50
2017,08,19,03,20,11.40
2017,08,19,03,21,11.40
2017,08,19,03,22,11.40
2017,08,19,03,23,11.40
2017,08,19,03,24,11.40
2017,08,19,03,25,11.40
2017,08,19,03,26,11.50
2017,08,19,03,27,11.50
2017,08,19,03,28,11.60
2017,08,19,03,29,11.60
2017,08,19,03,30,11.60
2017,08,19,03,31,11.70
2017,08,19,03,32,11.70
2017,08,19,03,33,11.70
2017,08,19,03,34,11.70
2017,08,19,03,35,11.70
2017,08,19,03,36,11.70
2017,08,19,03,37,11.70
2017,08,19,03,38,11.70
2017,08,19,03,39,11.70
2017,08,19,03,40,11.70
2017,08,19,03,41,11.70
2017,08,19,03,42,11.70
2017,08,19,03,43,11.70
2017,08,19,03,44,11.70
2017,08,19,03,45,11.70
2017,08,19,03,46,11.70
2017,08,19,03,47,11.70
2017,08,19,03,48,11.70
2017,08,19,03,49,11.70
2017,08,19,03,50,11.70
2017,08,19,03,51,11.70
2017,08,19,03,52,11.70
2017,08,19,03,53,11.70
2017,08,19,03,54,11.70
2017,08,19,03,55,11.70
2017,08,19,03,56,11.60
2017,08,19,03,57,11.60
2017,08,19,03,58,11.60
2017,08,19,03,59,11.60
2017,08,19,04,00,11.60
2017,08,19,04,01,11.60
2017,08,19,04,02,11.60
2017,08,19,04,03,11.60
2017,08,19,04,04,11.60
2017,08,19,04,05,11.50
2017,08,19,04,06,11.50
2017,08,19,04,07,11.50
2017,08,19,04,08,11.50
2017,08,19,04,09,11.50
2017,08,19,04,10,11.40
2017,08,19,04,11,11.40
2017,08,19,04,12,11.40
2017,08,19,04,13,11.40
2017,08,19,04,14,11.40
2017,08,19,04,15,11.30
2017,08,19,04,16,11.30
2017,08,19,04,17,11.30
2017,08,19,04,18,11.30
2017,08,19,04,19,11.20
2017,08,19,04,20,11.20
2017,08,19,04,21,11.20
2017,08,19,04,22,11.10
2017,08,19,04,23,11.10
2017,08,19,04,24,11.10
2017,08,19,04,25,11.00
2017,08,19,04,26,11.00
2017,08,19,04,27,11.00
2017,08,19,04,28,10.90
2017,08,19,04,29,10.90
2017,08,19,04,30,10.90
2017,08,19,04,31,10.80
2017,08,19,04,32,10.80
2017,08,19,04,33,10.80
2017,08,19,04,34,10.80
2017,08,19,04,35,10.80
2017,08,19,04,36,10.70
2017,08,19,04,37,10.70
2017,08,19,04,38,10.70
2017,08,19,04,39,10.60
2017,08,19,04,40,10.60
2017,08,19,04,41,10.60
2017,08,19,04,42,10.50
2017,08,19,04,43,10.50
2017,08,19,04,44,10.50
2017,08,19,04,45,10.40
2017,08,19,04,46,10.40
2017,08,19,04,47,10.40
2017,08,19,04,48,10.30
2017,08,19,04,49,10.30
2017,08,19,04,50,10.30
2017,08,19,04,51,10.30
2017,08,19,04,52,10.30
2017,08,19,04,53,10.20
2017,08,19,04,54,10.20
2017,08,19,04,55,10.20
2017,08,19,04,56,10.20
2017,08,19,04,57,10.20
2017,08,19,04,58,10.20
2017,08,19,04,59,10.20
2017,08,19,05,00,10.20
2017,08,19,05,01,10.20
2017,08,19,05,02,10.20
2017,08,19,05,03,10.10
2017,08,19,05,04,10.10
2017,08,19,05,05,10.10
2017,08,19,05,06,10.10
2017,08,19,05,07,10.10
2017,08,19,05,08,10.10
2017,08,19,05,09,10.10
2017,08,19,05,10,10.10
2017,08,19,05,11,10.10
2017,08,19,05,12,10.10
2017,08,19,05,13,10.10
2017,08,19,05,14,10.10
2017,08,19,05,15,10.10
2017,08,19,05,16,10.10
2017,08,19,05,17,10.10
2017,08,19,05,18,10.10
2017,08,19,05,19,10.00
2017,08,19,05,20,10.00
2017,08,19,05,21,10.00
2017,08,19,05,22,10.00
2017,08,19,05,23,10.00
2017,08,19,05,24,9.90
2017,08,19,05,25,9.90
2017,08,19,05,26,9.90
2017,08,19,05,27,9.90
2017,08,19,05,28,9.90
2017,08,19,05,29,9.90
2017,08,19,05,30,9.90
2017,08,19,05,31,9.90
2017,08,19,05,32,9.80
2017,08,19,05,33,9.80
2017,08,19,05,34,9.80
2017,08,19,05,35,9.80
2017,08,19,05,36,9.80
2017,08,19,05,37,9.80
2017,08,19,05,38,9.80
2017,08,19,05,39,9.80
2017,08,19,05,40,9.70
2017,08,19,05,41,9.70
2017,08,19,05,42,9.70
2017,08,19,05,43,9.70
2017,08,19,05,44,9.70
2017,08,19,05,45,9.70
2017,08,19,05,46,9.70
2017,08,19,05,47,9.60
2017,08,19,05,48,9.60
2017,08,19,05,49,9.60
2017,08,19,05,50,9.60
2017,08,19,05,51,9.60
2017,08,19,05,52,9.50
2017,08,19,05,53,9.50
2017,08,19,05,54,9.50
2017,08,19,05,55,9.40
2017,08,19,05,56,9.40
2017,08,19,05,57,9.40
2017,08,19,05,58,9.40
2017,08,19,05,59,9.40
2017,08,19,06,00,9.40
2017,08,19,06,01,9.40
2017,08,19,06,02,9.40
2017,08,19,06,03,9.40
2017,08,19,06,04,9.40
2017,08,19,06,05,9.40
2017,08,19,06,06,9.40
2017,08,19,06,07,9.40
2017,08,19,06,08,9.40
2017,08,19,06,09,9.40
2017,08,19,06,10,9.40
2017,08,19,06,11,9.40
2017,08,19,06,12,9.40
2017,08,19,06,13,9.40
2017,08,19,06,14,9.40
2017,08,19,06,15,9.40
2017,08,19,06,16,9.40
2017,08,19,06,17,9.30
2017,08,19,06,18,9.30
2017,08,19,06,19,9.30
2017,08,19,06,20,9.30
2017,08,19,06,21,9.30
2017,08,19,06,22,9.30
2017,08,19,06,23,9.30
2017,08,19,06,24,9.30
2017,08,19,06,25,9.30
2017,08,19,06,26,9.30
2017,08,19,06,27,9.30
2017,08,19,06,28,9.30
2017,08,19,06,29,9.30
2017,08,19,06,30,9.30
2017,08,19,06,31,9.30
2017,08,19,06,32,9.30
2017,08,19,06,33,9.30
2017,08,19,06,34,9.30
2017,08,19,06,35,9.30
2017,08,19,06,36,9.30
2017,08,19,06,37,9.30
2017,08,19,06,38,9.30
2017,08,19,06,39,9.30
2017,08,19,06,40,9.30
2017,08,19,06,41,9.30
2017,08,19,06,42,9.30
2017,08,19,06,43,9.30
2017,08,19,06,44,9.30
2017,08,19,06,45,9.30
2017,08,19,06,46,9.30
2017,08,19,06,47,9.30
2017,08,19,06,48,9.30
2017,08,19,06,49,9.30
2017,08,19,06,50,9.30
2017,08,19,06,51,9.30
2017,08,19,06,52,9.30
2017,08,19,06,53,9.30
2017,08,19,06,54,9.30
2017,08,19,06,55,9.30
2017,08,19,06,56,9.30
2017,08,19,06,57,9.40
2017,08,19,06,58,9.40
2017,08,19,06,59,9.40
2017,08,19,07,00,9.40
2017,08,19,07,01,9.40
2017,08,19,07,02,9.40
2017,08,19,07,03,9.40
2017,08,19,07,04,9.40
2017,08,19,07,05,9.40
2017,08,19,07,06,9.50
2017,08,19,07,07,9.50
2017,08,19,07,08,9.50
2017,08,19,07,09,9.60
2017,08,19,07,10,9.60
2017,08,19,07,11,9.60
2017,08,19,07,12,9.70
2017,08,19,07,13,9.70
2017,08,19,07,14,9.70
2017,08,19,07,15,9.80
2017,08,19,07,16,9.80
2017,08,19,07,17,9.90
2017,08,19,07,18,9.90
2017,08,19,07,19,10.00
2017,08,19,07,20,10.00
2017,08,19,07,21,10.10
2017,08,19,07,22,10.10
2017,08,19,07,23,10.20
2017,08,19,07,24,10.20
2017,08,19,07,25,10.30
2017,08,19,07,26,10.30
2017,08,19,07,27,10.40
2017,08,19,07,28,10.40
2017,08,19,07,29,10.50
2017,08,19,07,30,10.60
2017,08,19,07,31,10.60
2017,08,19,07,32,10.70
2017,08,19,07,33,10.70
2017,08,19,07,34,10.80
2017,08,19,07,35,10.80
2017,08,19,07,36,10.90
2017,08,19,07,37,11.00
2017,08,19,07,38,11.00
2017,08,19,07,39,11.10
2017,08,19,07,40,11.20
2017,08,19,07,41,11.30
2017,08,19,07,42,11.30
2017,08,19,07,43,11.40
2017,08,19,07,44,11.60
2017,08,19,07,45,11.70
2017,08,19,07,46,11.70
2017,08,19,07,47,11.80
2017,08,19,07,48,11.90
2017,08,19,07,49,12.00
2017,08,19,07,50,12.10
2017,08,19,07,51,12.20
2017,08,19,07,52,12.30
2017,08,19,07,53,12.40
2017,08,19,07,54,12.50
2017,08,19,07,55,12.60
2017,08,19,07,56,12.70
2017,08,19,07,57,12.80
2017,08,19,07,58,12.90
2017,08,19,07,59,13.00
2017,08,19,08,00,13.10
2017,08,19,08,01,13.20
2017,08,19,08,02,13.30
2017,08,19,08,03,13.30
2017,08,19,08,04,13.40
2017,08,19,08,05,13.50
2017,08,19,08,06,13.70
2017,08,19,08,07,13.80
2017,08,19,08,08,13.90
2017,08,19,08,09,14.00
2017,08,19,08,10,14.10
2017,08,19,08,11,14.20
2017,08,19,08,12,14.20
2017,08,19,08,13,14.30
2017,08,19,08,14,14.40
2017,08,19,08,15,14.40
2017,08,19,08,16,14.40
2017,08,19,08,17,14.50
2017,08,19,08,18,14.50
2017,08,19,08,19,14.60
2017,08,19,08,20,14.60
2017,08,19,08,21,14.70
2017,08,19,08,22,14.70
2017,08,19,08,23,14.70
2017,08,19,08,24,14.80
2017,08,19,08,25,14.80
2017,08,19,08,26,14.90
2017,08,19,08,27,15.00
2017,08,19,08,28,15.00
2017,08,19,08,29,15.10
2017,08,19,08,30,15.10
2017,08,19,08,31,15.10
2017,08,19,08,32,15.20
2017,08,19,08,33,15.20
2017,08,19,08,34,15.30
2017,08,19,08,35,15.30
2017,08,19,08,36,15.30
2017,08,19,08,37,15.40
2017,08,19,08,38,15.40
2017,08,19,08,39,15.50
2017,08,19,08,40,15.60
2017,08,19,08,41,15.60
2017,08,19,08,42,15.60
2017,08,19,08,43,15.60
2017,08,19,08,44,15.60
2017,08,19,08,45,15.70
2017,08,19,08,46,15.70
2017,08,19,08,47,15.70
2017,08,19,08,48,15.70
2017,08,19,08,49,15.70
2017,08,19,08,50,15.70
2017,08,19,08,51,15.70
2017,08,19,08,52,15.70
2017,08,19,08,53,15.70
2017,08,19,08,54,15.70
2017,08,19,08,55,15.70
2017,08,19,08,56,15.70
2017,08,19,08,57,15.70
2017,08,19,08,58,15.80
2017,08,19,08,59,15.80
2017,08,19,09,00,15.90
2017,08,19,09,01,16.00
2017,08,19,09,02,16.10
2017,08,19,09,03,16.20
2017,08,19,09,04,16.20
2017,08,19,09,05,16.20
2017,08,19,09,06,16.30
2017,08,19,09,07,16.30
2017,08,19,09,08,16.40
2017,08,19,09,09,16.40
2017,08,19,09,10,16.50
2017,08,19,09,11,16.50
2017,08,19,09,12,16.60
2017,08,19,09,13,16.60
2017,08,19,09,14,16.60
2017,08,19,09,15,16.60
2017,08,19,09,16,16.60
2017,08,19,09,17,16.60
2017,08,19,09,18,16.60
2017,08,19,09,19,16.60
2017,08,19,09,20,16.70
2017,08,19,09,21,16.70
2017,08,19,09,22,16.70
2017,08,19,09,23,16.80
2017,08,19,09,24,16.80
2017,08,19,09,25,16.80
2017,08,19,09,26,16.80
2017,08,19,09,27,16.80
2017,08,19,09,28,16.80
2017,08,19,09,29,16.80
2017,08,19,09,30,16.80
2017,08,19,09,31,16.90
2017,08,19,09,32,17.00
2017,08,19,09,33,17.00
2017,08,19,09,34,17.00
2017,08,19,09,35,17.00
2017,08,19,09,36,16.90
2017,08,19,09,37,16.90
2017,08,19,09,38,16.90
2017,08,19,09,39,17.00
2017,08,19,09,40,17.10
2017,08,19,09,41,17.20
2017,08,19,09,42,17.30
2017,08,19,09,43,17.30
2017,08,19,09,44,17.30
2017,08,19,09,45,17.30
2017,08,19,09,46,17.30
2017,08,19,09,47,17.30
2017,08,19,09,48,17.30
2017,08,19,09,49,17.30
2017,08,19,09,50,17.30
2017,08,19,09,51,17.40
2017,08,19,09,52,17.40
2017,08,19,09,53,17.40
2017,08,19,09,54,17.40
2017,08,19,09,55,17.40
2017,08,19,09,56,17.50
2017,08,19,09,57,17.50
2017,08,19,09,58,17.60
2017,08,19,09,59,17.60
2017,08,19,10,00,17.70
2017,08,19,10,01,17.70
2017,08,19,10,02,17.70
2017,08,19,10,03,17.70
2017,08,19,10,04,17.70
2017,08,19,10,05,17.70
2017,08,19,10,06,17.70
2017,08,19,10,07,17.80
2017,08,19,10,08,17.80
2017,08,19,10,09,17.90
2017,08,19,10,10,17.90
2017,08,19,10,11,17.90
2017,08,19,10,12,17.90
2017,08,19,10,13,17.90
2017,08,19,10,14,17.90
2017,08,19,10,15,17.90
2017,08,19,10,16,17.90
2017,08,19,10,17,17.80
2017,08,19,10,18,17.70
2017,08,19,10,19,17.70
2017,08,19,10,20,17.70
2017,08,19,10,21,17.70
2017,08,19,10,22,17.70
2017,08,19,10,23,17.60
2017,08,19,10,24,17.60
2017,08,19,10,25,17.60
2017,08,19,10,26,17.50
2017,08,19,10,27,17.50
2017,08,19,10,28,17.50
2017,08,19,10,29,17.60
2017,08,19,10,30,17.60
2017,08,19,10,31,17.70
2017,08,19,10,32,17.70
2017,08,19,10,33,17.80
2017,08,19,10,34,17.80
2017,08,19,10,35,17.90
2017,08,19,10,36,17.90
2017,08,19,10,37,17.90
2017,08,19,10,38,17.90
2017,08,19,10,39,17.90
2017,08,19,10,40,17.90
2017,08,19,10,41,17.90
2017,08,19,10,42,17.80
2017,08,19,10,43,17.70
2017,08,19,10,44,17.70
2017,08,19,10,45,17.70
2017,08,19,10,46,17.60
2017,08,19,10,47,17.70
2017,08,19,10,48,17.70
2017,08,19,10,49,17.70
2017,08,19,10,50,17.70
2017,08,19,10,51,17.90
2017,08,19,10,52,18.00
2017,08,19,10,53,18.20
2017,08,19,10,54,18.30
2017,08,19,10,55,18.50
2017,08,19,10,56,18.50
2017,08,19,10,57,18.60
2017,08,19,10,58,18.70
2017,08,19,10,59,18.80
2017,08,19,11,00,18.80
2017,08,19,11,01,18.80
2017,08,19,11,02,18.90
2017,08,19,11,03,19.00
2017,08,19,11,04,19.10
2017,08,19,11,05,19.20
2017,08,19,11,06,19.20
2017,08,19,11,07,19.30
2017,08,19,11,08,19.20
2017,08,19,11,09,19.20
2017,08,19,11,10,19.10
2017,08,19,11,11,18.90
2017,08,19,11,12,18.80
2017,08,19,11,13,18.80
2017,08,19,11,14,18.80
2017,08,19,11,15,18.80
2017,08,19,11,16,18.80
2017,08,19,11,17,18.80
2017,08,19,11,18,18.90
2017,08,19,11,19,19.00
2017,08,19,11,20,19.00
2017,08,19,11,21,19.00
2017,08,19,11,22,19.00
2017,08,19,11,23,19.00
2017,08,19,11,24,18.90
2017,08,19,11,25,19.00
2017,08,19,11,26,19.00
2017,08,19,11,27,19.10
2017,08,19,11,28,19.10
2017,08,19,11,29,19.10
2017,08,19,11,30,19.10
2017,08,19,11,31,19.10
2017,08,19,11,32,19.10
2017,08,19,11,33,19.10
2017,08,19,11,34,19.10
2017,08,19,11,35,19.10
2017,08,19,11,36,19.20
2017,08,19,11,37,19.20
2017,08,19,11,38,19.30
2017,08,19,11,39,19.30
2017,08,19,11,40,19.30
2017,08,19,11,41,19.30
2017,08,19,11,42,19.30
2017,08,19,11,43,19.20
2017,08,19,11,44,19.20
2017,08,19,11,45,19.20
2017,08,19,11,46,19.10
2017,08,19,11,47,19.10
2017,08,19,11,48,19.10
2017,08,19,11,49,19.10
2017,08,19,11,50,19.10
2017,08,19,11,51,19.00
2017,08,19,11,52,18.90
2017,08,19,11,53,18.80
2017,08,19,11,54,18.80
2017,08,19,11,55,18.80
2017,08,19,11,56,18.80
2017,08,19,11,57,18.80
2017,08,19,11,58,18.80
2017,08,19,11,59,18.80
2017,08,19,12,00,18.90
2017,08,19,12,01,18.90
2017,08,19,12,02,18.90
2017,08,19,12,03,18.90
2017,08,19,12,04,18.90
2017,08,19,12,05,18.80
2017,08,19,12,06,18.80
2017,08,19,12,07,18.70
2017,08,19,12,08,18.70
2017,08,19,12,09,18.60
2017,08,19,12,10,18.60
2017,08,19,12,11,18.70
2017,08,19,12,12,18.70
2017,08,19,12,13,18.70
2017,08,19,12,14,18.70
2017,08,19,12,15,18.80
2017,08,19,12,16,18.80
2017,08,19,12,17,18.80
2017,08,19,12,18,18.80
2017,08,19,12,19,18.80
2017,08,19,12,20,18.80
2017,08,19,12,21,18.80
2017,08,19,12,22,18.80
2017,08,19,12,23,18.70
2017,08,19,12,24,18.80
2017,08,19,12,25,18.80
2017,08,19,12,26,18.90
2017,08,19,12,27,19.00
2017,08,19,12,28,19.10
2017,08,19,12,29,19.10
2017,08,19,12,30,19.20
2017,08,19,12,31,19.30
2017,08,19,12,32,19.30
2017,08,19,12,33,19.40
2017,08,19,12,34,19.40
2017,08,19,12,35,19.40
2017,08,19,12,36,19.40
2017,08,19,12,37,19.40
2017,08,19,12,38,19.40
2017,08,19,12,39,19.40
2017,08,19,12,40,19.40
2017,08,19,12,41,19.40
2017,08,19,12,42,19.40
2017,08,19,12,43,19.50
2017,08,19,12,44,19.50
2017,08,19,12,45,19.50
2017,08,19,12,46,19.40
2017,08,19,12,47,19.40
2017,08,19,12,48,19.40
2017,08,19,12,49,19.40
2017,08,19,12,50,19.40
2017,08,19,12,51,19.40
2017,08,19,12,52,19.40
2017,08,19,12,53,19.40
2017,08,19,12,54,19.40
2017,08,19,12,55,19.40
2017,08,19,12,56,19.40
2017,08,19,12,57,19.40
2017,08,19,12,58,19.40
2017,08,19,12,59,19.30
2017,08,19,13,00,19.20
2017,08,19,13,01,19.20
2017,08,19,13,02,19.20
2017,08,19,13,03,19.20
2017,08,19,13,04,19.20
2017,08,19,13,05,19.10
2017,08,19,13,06,19.10
2017,08,19,13,07,19.10
2017,08,19,13,08,19.10
2017,08,19,13,09,19.10
2017,08,19,13,10,19.10
2017,08,19,13,11,19.10
2017,08,19,13,12,19.10
2017,08,19,13,13,19.10
2017,08,19,13,14,19.10
2017,08,19,13,15,19.20
2017,08,19,13,16,19.20
2017,08,19,13,17,19.30
2017,08,19,13,18,19.30
2017,08,19,13,19,19.30
2017,08,19,13,20,19.30
2017,08,19,13,21,19.30
2017,08,19,13,22,19.30
2017,08,19,13,23,19.30
2017,08,19,13,24,19.30
2017,08,19,13,25,19.40
2017,08,19,13,26,19.40
2017,08,19,13,27,19.50
2017,08,19,13,28,19.40
2017,08,19,13,29,19.50
2017,08,19,13,30,19.60
2017,08,19,13,31,19.70
2017,08,19,13,32,19.70
2017,08,19,13,33,19.70
2017,08,19,13,34,19.80
2017,08,19,13,35,19.80
2017,08,19,13,36,19.90
2017,08,19,13,37,19.90
2017,08,19,13,38,19.90
2017,08,19,13,39,19.90
2017,08,19,13,40,19.90
2017,08,19,13,41,19.90
2017,08,19,13,42,20.00
2017,08,19,13,43,20.10
2017,08,19,13,44,20.10
2017,08,19,13,45,20.10
2017,08,19,13,46,20.20
2017,08,19,13,47,20.20
2017,08,19,13,48,20.20
2017,08,19,13,49,20.20
2017,08,19,13,50,20.20
2017,08,19,13,51,20.10
2017,08,19,13,52,20.10
2017,08,19,13,53,20.10
2017,08,19,13,54,20.20
2017,08,19,13,55,20.20
2017,08,19,13,56,20.20
2017,08,19,13,57,20.20
2017,08,19,13,58,20.10
2017,08,19,13,59,20.00
2017,08,19,14,00,20.00
2017,08,19,14,01,19.90
2017,08,19,14,02,19.90
2017,08,19,14,03,20.00
2017,08,19,14,04,20.00
2017,08,19,14,05,19.90
2017,08,19,14,06,19.90
2017,08,19,14,07,19.80
2017,08,19,14,08,19.80
2017,08,19,14,09,19.80
2017,08,19,14,10,19.80
2017,08,19,14,11,19.90
2017,08,19,14,12,20.00
2017,08,19,14,13,20.10
2017,08,19,14,14,20.10
2017,08,19,14,15,20.20
2017,08,19,14,16,20.30
2017,08,19,14,17,20.30
2017,08,19,14,18,20.40
2017,08,19,14,19,20.50
2017,08,19,14,20,20.60
2017,08,19,14,21,20.60
2017,08,19,14,22,20.60
2017,08,19,14,23,20.70
2017,08,19,14,24,20.70
2017,08,19,14,25,20.70
2017,08,19,14,26,20.70
2017,08,19,14,27,20.70
2017,08,19,14,28,20.70
2017,08,19,14,29,20.70
2017,08,19,14,30,20.60
2017,08,19,14,31,20.50
2017,08,19,14,32,20.40
2017,08,19,14,33,20.40
2017,08,19,14,34,20.40
2017,08,19,14,35,20.30
2017,08,19,14,36,20.10
2017,08,19,14,37,20.00
2017,08,19,14,38,20.00
2017,08,19,14,39,20.10
2017,08,19,14,40,20.10
2017,08,19,14,41,20.20
2017,08,19,14,42,20.30
2017,08,19,14,43,20.30
2017,08,19,14,44,20.30
2017,08,19,14,45,20.30
2017,08,19,14,46,20.40
2017,08,19,14,47,20.40
2017,08,19,14,48,20.50
2017,08,19,14,49,20.70
2017,08,19,14,50,20.80
2017,08,19,14,51,20.80
2017,08,19,14,52,20.80
2017,08,19,14,53,20.80
2017,08,19,14,54,20.90
2017,08,19,14,55,20.90
2017,08,19,14,56,20.90
2017,08,19,14,57,20.90
2017,08,19,14,58,20.90
2017,08,19,14,59,21.00
2017,08,19,15,00,21.00
2017,08,19,15,01,21.10
2017,08,19,15,02,21.10
2017,08,19,15,03,21.10
2017,08,19,15,04,21.10
2017,08,19,15,05,21.10
2017,08,19,15,06,21.10
2017,08,19,15,07,21.10
2017,08,19,15,08,21.00
2017,08,19,15,09,20.90
2017,08,19,15,10,20.90
2017,08,19,15,11,21.00
2017,08,19,15,12,21.00
2017,08,19,15,13,21.00
2017,08,19,15,14,20.90
2017,08,19,15,15,20.90
2017,08,19,15,16,21.00
2017,08,19,15,17,21.00
2017,08,19,15,18,21.10
2017,08,19,15,19,21.10
2017,08,19,15,20,21.10
2017,08,19,15,21,21.20
2017,08,19,15,22,21.20
2017,08,19,15,23,21.20
2017,08,19,15,24,21.30
2017,08,19,15,25,21.30
2017,08,19,15,26,21.40
2017,08,19,15,27,21.50
2017,08,19,15,28,21.50
2017,08,19,15,29,21.60
2017,08,19,15,30,21.70
2017,08,19,15,31,21.70
2017,08,19,15,32,21.70
2017,08,19,15,33,21.70
2017,08,19,15,34,21.70
2017,08,19,15,35,21.70
2017,08,19,15,36,21.70
2017,08,19,15,37,21.70
2017,08,19,15,38,21.70
2017,08,19,15,39,21.60
2017,08,19,15,40,21.60
2017,08,19,15,41,21.60
2017,08,19,15,42,21.60
2017,08,19,15,43,21.60
2017,08,19,15,44,21.60
2017,08,19,15,45,21.60
2017,08,19,15,46,21.60
2017,08,19,15,47,21.70
2017,08,19,15,48,21.70
2017,08,19,15,49,21.70
2017,08,19,15,50,21.80
2017,08,19,15,51,21.80
2017,08,19,15,52,21.80
2017,08,19,15,53,21.70
2017,08,19,15,54,21.60
2017,08,19,15,55,21.60
2017,08,19,15,56,21.50
2017,08,19,15,57,21.50
2017,08,19,15,58,21.50
2017,08,19,15,59,21.50
2017,08,19,16,00,21.40
2017,08,19,16,01,21.40
2017,08,19,16,02,21.40
2017,08,19,16,03,21.40
2017,08,19,16,04,21.40
2017,08,19,16,05,21.40
2017,08,19,16,06,21.40
2017,08,19,16,07,21.30
2017,08,19,16,08,21.30
2017,08,19,16,09,21.30
2017,08,19,16,10,21.30
2017,08,19,16,11,21.40
2017,08,19,16,12,21.40
2017,08,19,16,13,21.40
2017,08,19,16,14,21.40
2017,08,19,16,15,21.40
2017,08,19,16,16,21.40
2017,08,19,16,17,21.30
2017,08,19,16,18,21.20
2017,08,19,16,19,21.20
2017,08,19,16,20,21.10
2017,08,19,16,21,21.00
2017,08,19,16,22,20.90
2017,08,19,16,23,20.90
2017,08,19,16,24,20.90
2017,08,19,16,25,20.90
2017,08,19,16,26,21.00
2017,08,19,16,27,21.00
2017,08,19,16,28,21.10
2017,08,19,16,29,21.10
2017,08,19,16,30,21.10
2017,08,19,16,31,21.20
2017,08,19,16,32,21.20
2017,08,19,16,33,21.20
2017,08,19,16,34,21.20
2017,08,19,16,35,21.30
2017,08,19,16,36,21.20
2017,08,19,16,37,21.20
2017,08,19,16,38,21.20
2017,08,19,16,39,21.10
2017,08,19,16,40,21.00
2017,08,19,16,41,21.00
2017,08,19,16,42,20.90
2017,08,19,16,43,20.90
2017,08,19,16,44,20.90
2017,08,19,16,45,20.90
2017,08,19,16,46,20.90
2017,08,19,16,47,20.90
2017,08,19,16,48,20.90
2017,08,19,16,49,20.90
2017,08,19,16,50,20.90
2017,08,19,16,51,20.90
2017,08,19,16,52,21.00
2017,08,19,16,53,21.00
2017,08,19,16,54,21.00
2017,08,19,16,55,21.10
2017,08,19,16,56,21.10
2017,08,19,16,57,21.20
2017,08,19,16,58,21.20
2017,08,19,16,59,21.20
2017,08,19,17,00,21.30
2017,08,19,17,01,21.30
2017,08,19,17,02,21.40
2017,08,19,17,03,21.40
2017,08,19,17,04,21.50
2017,08,19,17,05,21.60
2017,08,19,17,06,21.60
2017,08,19,17,07,21.60
2017,08,19,17,08,21.60
2017,08,19,17,09,21.60
2017,08,19,17,10,21.70
2017,08,19,17,11,21.70
2017,08,19,17,12,21.80
2017,08,19,17,13,21.90
2017,08,19,17,14,21.90
2017,08,19,17,15,22.00
2017,08,19,17,16,22.00
2017,08,19,17,17,22.00
2017,08,19,17,18,22.00
2017,08,19,17,19,21.90
2017,08,19,17,20,21.90
2017,08,19,17,21,21.80
2017,08,19,17,22,21.70
2017,08,19,17,23,21.70
2017,08,19,17,24,21.60